[[{"header":{"parameterUnit":"m.s-1","parameterCategory":1,"la1":30.2992,"la2":30.254,"lo1":-89.0895,"lo2":-89.0443,"dy":0.0025,"dx":0.0025,"nx":19,"ny":19,"refTime":"2026-03-16T03:00:00:Z","depth":0,"parameterNumber":2,"parameterNumberName":"U-component_of_WINDS"},"data":[0,0,0,-0.4401,-0.4405,-0.4588,-0.4589,-0.4796,-0.4798,0,0,0,0,0,0,0,0,0,0,0,-0.433,-0.4331,-0.4401,-0.4405,-0.4588,-0.4589,-0.4796,-0.4798,0,0,0,0,0,0,0,0,0,0,0,-0.433,-0.433,-0.4331,-0.4406,-0.4588,-0.4589,-0.4796,-0.4667,0,0,0,0,0,0,0,0,0,0,-0.4494,-0.4411,-0.433,-0.4332,-0.4407,-0.4588,-0.4589,-0.4661,-0.4675,-0.4701,0,-0.4719,0,-0.4761,-0.481,-0.481,0,0,0,-0.4418,-0.44,-0.4464,-0.4332,-0.4408,-0.4587,-0.4509,-0.4669,-0.4685,-0.4719,-0.4722,-0.4731,-0.4765,-0.4811,-0.4812,-0.4916,-0.4915,0,0,-0.4408,-0.4354,-0.4453,-0.4473,-0.4442,-0.4503,-0.4515,-0.4679,-0.468,-0.4723,-0.4736,-0.4768,-0.4812,-0.4814,-0.4916,-0.4916,0,0,0,-0.437,-0.4346,-0.4408,-0.4464,-0.4499,-0.4508,-0.4522,-0.4672,-0.4697,-0.4739,-0.4771,-0.4813,-0.4815,-0.4916,-0.4916,-0.4855,0,0,0,-0.4365,-0.4324,-0.4403,-0.4371,-0.4495,-0.4588,-0.451,-0.4685,-0.4706,-0.477,-0.4813,-0.4817,-0.4916,-0.4916,-0.4857,-0.4836,0,0,0,-0.4324,-0.432,-0.434,-0.4368,-0.4445,-0.4586,-0.4621,-0.4691,-0.4724,-0.4811,-0.4818,-0.4917,-0.4916,-0.4859,-0.4839,-0.4847,0,0,0,-0.4265,-0.4285,-0.4338,-0.4373,-0.4443,-0.4547,-0.462,-0.4702,-0.4768,-0.4814,-0.4916,-0.4916,-0.486,-0.4841,-0.4848,-0.4842,-0.4835,0,0,-0.426,-0.4283,-0.4308,-0.4361,-0.4441,-0.4524,-0.4597,-0.471,-0.4769,-0.4864,-0.4867,-0.4857,-0.484,-0.4847,-0.4813,-0.4807,0,0,0,-0.4288,-0.4305,-0.4338,-0.4398,-0.4484,-0.4556,-0.4664,-0.4706,-0.4788,-0.4806,-0.4864,-0.4855,-0.4862,-0.4861,-0.4856,-0.4865,-0.4913,-0.4914,-0.4914,-0.4204,-0.4276,-0.4322,-0.4416,-0.4473,-0.4583,-0.4636,-0.4712,-0.477,-0.4782,-0.481,-0.4781,-0.4778,-0.4775,-0.4783,-0.4814,-0.4813,-0.4813,-0.4813,-0.4203,-0.4238,-0.4313,-0.4384,-0.446,-0.4521,-0.4628,-0.4666,-0.4734,-0.4766,-0.4775,-0.4803,-0.4766,-0.4777,-0.4809,-0.481,-0.481,-0.4811,-0.4811,-0.4156,-0.4185,-0.4234,-0.4328,-0.4392,-0.4487,-0.4548,-0.4617,-0.4681,-0.4691,-0.4728,-0.4729,-0.4738,-0.4704,-0.4703,-0.4703,-0.4703,-0.4703,-0.4703,-0.4087,-0.4144,-0.4187,-0.4278,-0.4325,-0.4396,-0.4505,-0.4554,-0.4625,-0.467,-0.4671,-0.4726,-0.4748,-0.4752,-0.4702,-0.4702,-0.4702,-0.4702,-0.4702,-0.4058,-0.4075,-0.414,-0.4187,-0.43,-0.4358,-0.4444,-0.4536,-0.4586,-0.4614,-0.4668,-0.4673,-0.4702,-0.4707,-0.471,-0.4652,-0.4652,-0.4652,-0.4652,-0.4018,-0.4038,-0.412,-0.4189,-0.4266,-0.435,-0.4421,-0.4506,-0.4598,-0.4633,-0.4652,-0.4662,-0.4664,-0.4691,-0.4697,-0.4701,-0.4642,-0.4642,-0.4642,-0.4004,-0.4035,-0.4082,-0.417,-0.4263,-0.4341,-0.441,-0.4488,-0.4595,-0.4643,-0.4662,-0.4663,-0.4681,-0.4683,-0.4731,-0.4737,-0.4747,0,0]},{"header":{"parameterUnit":"m.s-1","parameterCategory":1,"la1":30.2992,"la2":30.254,"lo1":-89.0895,"lo2":-89.0443,"dy":0.0025,"dx":0.0025,"nx":19,"ny":19,"refTime":"2026-03-16T03:00:00:Z","depth":0,"parameterNumber":3,"parameterNumberName":"V-component_of_WINDS"},"data":[0,0,0,7.6042,7.6047,7.629,7.6291,7.6587,7.6589,0,0,0,0,0,0,0,0,0,0,0,7.5961,7.5963,7.6041,7.6047,7.6289,7.6291,7.6586,7.6589,0,0,0,0,0,0,0,0,0,0,0,7.596,7.5963,7.5965,7.6048,7.6289,7.6291,7.6586,7.6407,0,0,0,0,0,0,0,0,0,0,7.6174,7.6092,7.5962,7.5965,7.6049,7.6289,7.6291,7.6399,7.6419,7.6471,0,7.6515,0,7.6557,7.6608,7.6609,0,0,0,7.6053,7.6076,7.6149,7.5965,7.6051,7.6289,7.6182,7.641,7.6432,7.6496,7.652,7.6531,7.6562,7.661,7.6611,7.6895,7.6896,0,0,7.604,7.6,7.6134,7.6163,7.6125,7.6174,7.6189,7.6424,7.6446,7.6521,7.6538,7.6567,7.6612,7.6614,7.6894,7.6895,0,0,0,7.5997,7.5991,7.6058,7.615,7.6195,7.6181,7.6198,7.6436,7.6461,7.6542,7.657,7.6613,7.6617,7.6893,7.6894,7.6909,0,0,0,7.5989,7.5966,7.6052,7.603,7.619,7.6318,7.6205,7.6445,7.6473,7.6569,7.6614,7.662,7.6892,7.6894,7.6906,7.6923,0,0,0,7.5948,7.5961,7.5994,7.6028,7.6131,7.6316,7.6355,7.6452,7.649,7.6609,7.662,7.6891,7.6893,7.6904,7.6919,7.6987,0,0,0,7.5893,7.6001,7.5993,7.6126,7.6129,7.6323,7.6354,7.65,7.6604,7.6615,7.6892,7.6894,7.6903,7.6916,7.6984,7.7038,7.7057,0,0,7.6008,7.6014,7.6095,7.6095,7.628,7.6289,7.6477,7.6609,7.6655,7.6812,7.682,7.6907,7.6918,7.6987,7.7173,7.7188,0,0,0,7.6118,7.6176,7.6234,7.6332,7.6436,7.6528,7.6635,7.6684,7.682,7.6728,7.6951,7.6959,7.7001,7.7028,7.7041,7.708,7.6905,7.6905,7.6905,7.6224,7.628,7.6419,7.6504,7.6598,7.6709,7.6792,7.6877,7.6903,7.6955,7.7002,7.7109,7.714,7.715,7.719,7.7035,7.7035,7.7035,7.7035,7.6399,7.6491,7.6526,7.6673,7.6731,7.6855,7.6967,7.6982,7.7106,7.7078,7.7117,7.7082,7.7164,7.7202,7.7037,7.7036,7.7036,7.7036,7.7036,7.6476,7.6529,7.6588,7.6738,7.6846,7.6928,7.7047,7.7095,7.7141,7.718,7.7236,7.7236,7.7243,7.7203,7.7203,7.7204,7.7204,7.7204,7.7205,7.6532,7.6598,7.6693,7.6814,7.6885,7.6983,7.7097,7.7168,7.7258,7.7284,7.7285,7.7307,7.7161,7.7124,7.7211,7.721,7.7209,7.7208,7.7208,7.669,7.6663,7.6808,7.6879,7.7027,7.7133,7.7193,7.7333,7.7398,7.7456,7.747,7.7354,7.7363,7.7354,7.7324,7.7457,7.7457,7.7457,7.7457,7.6756,7.6765,7.6927,7.7037,7.7151,7.722,7.7384,7.7474,7.7563,7.7607,7.7595,7.7558,7.7546,7.7563,7.7549,7.7522,7.7702,7.7702,7.7703,7.6857,7.688,7.7011,7.7098,7.7217,7.7319,7.7475,7.7601,7.7695,7.7714,7.7643,7.7633,7.7575,7.7553,7.7569,7.7547,7.7498,0,0]}]]